Погода в Нижнем Торее

Россия / Республика Бурятия     50°31′52″N   104°49′29″E
темп.,
°C
ветер,
м/с
пор.,
м/с
влажн.,
%
обл.,
%
осадки,
мм/ч
давл.,
гПа
погр.,
м
6 мая, чт
чт623:00−2зсз365569 0.0 1020279
02:00−3з36606 0.0 1021166
05:00−4зюз22635 0.0 102140
08:000з244599 0.0 1021647
11:00+5зюз4525100 0.0 10161602
14:00+10з472317 0.0 10102017
17:00+14з5925100 0.0 10062529
20:00+10ссв234692 0.0 100751
7 мая, пт
пт723:00+5сз116679 0.0 100915
02:00+3ссз118228 0.0 100811
05:00+2ссз2291100 0.0 100918
08:00+6с246941 0.0 1009664
11:00+9с464384 0.0 10091358
14:00+11с6840100 0.0 10091607
17:00+9ссв6939100 0.0 10101377
20:00+6св3542100 0.0 1013565
8 мая, сб
сб823:00+3всв1150100 0.0 101511
02:00+1ююв0157100 0.0 101511
05:000ю116059 0.0 101412
08:00+4вюв1147100 0.0 1013320
11:00+4ссз2261100 0.2 1014752
14:00+10сз264994 0.2 10091311
17:00+10с464799 0.0 10111364
20:00+7всв115521 0.0 101211
9 мая, вс
вс923:00+4сз226898 0.0 101416
02:00+3сз117896 0.0 101517
05:00+3зсз1180100 0.0 101512
08:00+6сз117488 0.1 1015428
11:00+11з245149 0.0 10111293
14:00+16ю152789 0.0 10062499
17:00+15св663392 0.1 10041742
20:00+10юв226133 0.1 100527
10 мая, пн
пн1023:00+6с3581100 0.5 1009261
02:00+4сз2467100 0.8 1012487
05:00+3сз247291 0.0 1014301
08:00+4ссз244979 0.0 10161100
11:00+7ссз373699 0.0 10152165
14:00+10сз3528100 0.0 10122692
17:00+10с673099 0.1 10112261
20:00+6с46473 0.1 1015415